QPF
0.00 0.00 0.00 0.00 0.00 0.00 0.00 0.00 0.00 0.00 0.00 0.00 0.00 0.00 0.00 0.00 0.00 0.00 0.00 0.00 0.00 0.00
0.00 0.00 0.00 0.00 0.00 0.00 0.00 0.00 0.00 0.00 0.00 0.00 0.00 0.00 0.00 0.00 0.00 0.00 0.00 0.00 0.00 0.00
0.00 0.00 0.00 0.00 0.00 0.00 0.00 0.00 0.00 0.00 0.00 0.00 0.00 0.00 0.00 0.00 0.00 0.00 0.00 0.00 0.00 0.00
0.00 0.00 0.00 0.00 0.00 0.00 0.00 0.00 0.00 0.00 0.00 0.00 0.00 0.00 0.00 0.00 0.00 0.00 0.00 0.00 0.00 0.00
0.00 0.00 0.00 0.00 0.00 0.00 0.00 0.00 0.00 0.00 0.00 0.00 0.00 0.00 0.00 0.00 0.00 0.00 0.00 0.00 0.00 0.00
0.00 0.00 0.00 0.00 0.00 0.00 0.00 0.00 0.00 0.00 0.00 0.00 0.00 0.00 0.00 0.00 0.00 0.00 0.00 0.00 0.00 0.00
0.00 0.00 0.00 0.00 0.00 0.00 0.00 0.00 0.00 0.00 0.00 0.00 0.00 0.00 0.00 0.00 0.00 0.00 0.00 0.00 0.00 0.00
0.00 0.00 0.00 0.00 0.00 0.00 0.00 0.00 0.00 0.00 0.00 0.00 0.00 0.00 0.00 0.00 0.00 0.00 0.00 0.00 0.00 0.00
0.00 0.00 0.00 0.00 0.00 0.00 0.00 0.00 0.00 0.00 0.00 0.00 0.00 0.00 0.00 0.00 0.00 0.00 0.00 0.00 0.00 0.00
0.00 0.00 0.00 0.00 0.00 0.00 0.00 0.00 0.00 0.00 0.00 0.00 0.00 0.00 0.00 0.00 0.00 0.00 0.00 0.00 0.00 0.00
0.00 0.00 0.00 0.00 0.00 0.00 0.00 0.00 0.00 0.00 0.00 0.00 0.00 0.00 0.00 0.00 0.00 0.00 0.00 0.00 0.00 0.00
0.00 0.00 0.00 0.00 0.00 0.00 0.00 0.00 0.00 0.00 0.00 0.00 0.00 0.00 0.00 0.00 0.00 0.00 0.00 0.00 0.00 0.00
0.00 0.00 0.00 0.00 0.00 0.00 0.00 0.00 0.00 0.00 0.00 0.00 0.00 0.00 0.00 0.00 0.00 0.00 0.00 0.00 0.00 0.00
0.00 0.00 0.00 0.00 0.00 0.00 0.00 0.00 0.00 0.00 0.00 0.00 0.00 0.00 0.00 0.00 0.00 0.00 0.00 0.00 0.00 0.00
MSLP
1018.94 1019.37 1019.81 1020.16 1020.41 1020.51 1020.71 1020.80 1020.85 1021.07 1021.32 1021.45 1021.57 1021.78 1022.06 1022.31 1022.41 1022.57 1022.71 1022.85 1022.96 1022.95
1019.00 1019.36 1019.76 1020.18 1020.30 1020.57 1020.75 1020.78 1020.98 1021.13 1021.33 1021.52 1021.64 1021.77 1022.02 1022.28 1022.37 1022.47 1022.56 1022.62 1022.68 1022.71
1018.93 1019.38 1019.79 1020.19 1020.46 1020.67 1020.87 1020.94 1021.09 1021.24 1021.48 1021.69 1021.76 1021.90 1022.09 1022.21 1022.28 1022.37 1022.42 1022.44 1022.59 1022.55
1019.03 1019.53 1019.91 1020.32 1020.58 1020.79 1021.02 1021.12 1021.32 1021.64 1021.91 1021.95 1022.00 1022.14 1022.18 1022.25 1022.33 1022.49 1022.58 1022.52 1022.56 1022.53
1019.22 1019.71 1020.15 1020.50 1020.80 1021.02 1021.28 1021.49 1021.74 1021.94 1022.14 1022.14 1022.25 1022.32 1022.42 1022.50 1022.48 1022.53 1022.57 1022.54 1022.48 1022.35
1019.50 1019.98 1020.44 1020.83 1021.17 1021.42 1021.67 1021.90 1022.17 1022.31 1022.37 1022.44 1022.48 1022.46 1022.49 1022.48 1022.49 1022.44 1022.42 1022.38 1022.34 1022.11
1019.85 1020.29 1020.73 1021.13 1021.49 1021.80 1022.04 1022.27 1022.53 1022.62 1022.71 1022.74 1022.64 1022.55 1022.46 1022.41 1022.35 1022.30 1022.25 1022.14 1022.03 1021.81
1020.18 1020.59 1021.04 1021.45 1021.84 1022.10 1022.39 1022.66 1022.85 1022.85 1022.88 1022.90 1022.73 1022.52 1022.33 1022.31 1022.33 1022.33 1022.21 1021.98 1021.75 1021.41
1020.45 1020.98 1021.42 1021.79 1022.13 1022.41 1022.73 1022.88 1022.99 1023.04 1023.06 1023.02 1022.87 1022.51 1022.20 1022.12 1022.18 1022.15 1022.04 1021.86 1021.37 1020.95
1020.87 1021.39 1021.83 1022.16 1022.40 1022.73 1023.03 1023.13 1023.23 1023.26 1023.23 1023.19 1022.90 1022.44 1022.11 1021.88 1021.94 1021.96 1021.81 1021.56 1021.18 1020.83
1021.26 1021.84 1022.20 1022.40 1022.71 1023.04 1023.21 1023.31 1023.40 1023.42 1023.35 1023.13 1022.79 1022.43 1022.06 1021.67 1021.60 1021.56 1021.44 1021.20 1020.88 1020.51
1021.59 1022.12 1022.41 1022.79 1023.08 1023.26 1023.36 1023.41 1023.46 1023.48 1023.40 1023.23 1022.84 1022.42 1021.90 1021.51 1021.40 1021.32 1021.19 1020.91 1020.50 1020.09
1021.76 1022.24 1022.72 1022.92 1023.16 1023.32 1023.41 1023.50 1023.47 1023.49 1023.39 1023.20 1022.89 1022.38 1021.76 1021.41 1021.19 1021.18 1020.92 1020.47 1019.89 1019.50
1022.14 1022.45 1022.67 1022.94 1023.16 1023.40 1023.49 1023.58 1023.69 1023.52 1023.20 1022.97 1022.71 1022.25 1021.68 1021.38 1021.09 1020.88 1020.39 1019.95 1019.43 1018.91
Thickness
5614 5613 5613 5613 5612 5611 5609 5607 5605 5602 5598 5595 5591 5587 5582 5578 5574 5568 5563 5557 5552 5548
5608 5608 5607 5607 5606 5604 5602 5600 5596 5594 5590 5586 5582 5578 5574 5569 5564 5559 5554 5549 5544 5538
5603 5602 5601 5599 5598 5596 5592 5590 5588 5585 5581 5576 5573 5569 5564 5560 5555 5550 5545 5540 5534 5529
5595 5595 5594 5592 5590 5587 5583 5582 5579 5575 5570 5567 5563 5559 5555 5550 5545 5539 5533 5528 5522 5518
5589 5587 5586 5583 5579 5577 5574 5571 5568 5564 5560 5556 5552 5548 5543 5538 5532 5527 5521 5516 5511 5506
5581 5578 5575 5572 5569 5566 5563 5560 5556 5552 5548 5544 5540 5536 5531 5526 5520 5515 5509 5504 5498 5494
5571 5569 5565 5562 5559 5556 5553 5549 5544 5540 5536 5532 5529 5524 5519 5514 5508 5503 5498 5492 5486 5481
5561 5559 5555 5552 5549 5546 5541 5537 5533 5529 5525 5520 5516 5511 5507 5501 5496 5489 5484 5478 5472 5467
5553 5549 5546 5543 5539 5535 5530 5526 5522 5517 5512 5506 5502 5498 5494 5489 5483 5477 5470 5464 5458 5452
5543 5540 5536 5532 5529 5524 5519 5515 5510 5504 5499 5493 5489 5486 5482 5477 5470 5462 5455 5449 5442 5436
5534 5529 5525 5522 5518 5513 5508 5503 5498 5492 5487 5481 5477 5474 5469 5464 5456 5448 5440 5432 5424 5415
5524 5520 5516 5512 5507 5502 5497 5492 5486 5481 5475 5469 5464 5460 5455 5450 5442 5433 5424 5416 5407 5398
5516 5511 5506 5502 5496 5491 5485 5480 5475 5468 5462 5456 5449 5444 5440 5434 5426 5418 5410 5401 5392 5382
5505 5501 5497 5491 5486 5479 5474 5469 5462 5456 5450 5442 5436 5429 5424 5417 5408 5398 5393 5383 5376 5367